Simultaneous Nadir Overpasses (SNOs) Predictions

Prediction of SNOs between NOAA-20 and METOP-C Satellite Orbit:

Table of predicted SNOs for the next 14.0 days since TLE Epoch: 8/14/2020
Index Date (NOAA-20) Time (NOAA-20) Lat,Lon (NOAA-20) SZA (NOAA-20 ) Date (METOP-C) Time (METOP-C) Lat,Lon (METOP-C) SZA (METOP-C ) Distance(km) Time Diff (sec)
1 08/24/2020 10:59:33 73.38, 5.55 62.72 08/24/2020 11:00:40 73.30, 8.15 62.50 83.41 67
2 08/24/2020 11:50:15 -73.28, 173.08 117.38 08/24/2020 11:51:23 -73.22, 175.30 117.56 71.57 68
3 08/24/2020 12:40:57 73.08, -19.18 62.42 08/24/2020 12:42:07 73.02, -17.79 62.28 45.44 70
4 08/24/2020 13:31:39 -72.99, 148.35 117.68 08/24/2020 13:32:51 -72.90, 149.27 117.83 31.67 72
5 08/24/2020 14:22:21 72.79, -43.92 62.12 08/24/2020 14:23:34 72.75, -43.71 62.05 8.31 73
6 08/24/2020 15:13:04 -72.74, 123.49 117.92 08/24/2020 15:14:16 -72.72, 123.56 117.96 3.40 72
7 08/24/2020 16:03:49 72.69, -69.10 62.04 08/24/2020 16:04:56 72.72, -69.10 62.06 3.33 67
8 08/24/2020 16:54:33 -72.70, 98.20 117.95 08/24/2020 16:55:38 -72.70, 98.18 117.96 0.86 65
9 08/24/2020 17:45:19 72.70, -94.49 62.07 08/24/2020 17:46:18 72.70, -94.49 62.06 0.17 59
10 08/24/2020 18:36:03 -72.71, 72.81 117.91 08/24/2020 18:37:00 -72.68, 72.79 117.95 3.44 57
11 08/24/2020 19:26:49 72.71,-119.88 62.10 08/24/2020 19:27:40 72.68,-119.87 62.06 3.44 51
12 08/24/2020 20:17:33 -72.71, 47.42 117.88 08/24/2020 20:18:21 -72.71, 47.51 117.91 2.97 48
13 08/24/2020 21:08:18 72.67,-145.17 62.08 08/24/2020 21:09:02 72.66,-145.26 62.07 3.33 44
14 08/24/2020 21:59:02 -72.67, 22.14 117.91 08/24/2020 21:59:43 -72.68, 22.12 117.90 1.37 41
15 08/24/2020 22:49:48 72.67,-170.56 62.11 08/24/2020 22:50:23 72.68,-170.54 62.12 1.20 35
16 08/24/2020 23:40:32 -72.68, -3.25 117.87 08/24/2020 23:41:05 -72.66, -3.26 117.90 2.15 33
17 08/25/2020 00:31:18 72.68, 164.05 62.15 08/25/2020 00:31:45 72.66, 164.07 62.12 2.32 27
18 08/25/2020 01:22:02 -72.69, -28.64 117.84 08/25/2020 01:22:26 -72.69, -28.55 117.85 3.06 24
19 08/25/2020 02:12:47 72.64, 138.77 62.12 08/25/2020 02:13:07 72.64, 138.68 62.12 2.86 20
20 08/25/2020 03:03:31 -72.64, -53.92 117.86 08/25/2020 03:03:48 -72.66, -53.93 117.85 2.51 17
21 08/25/2020 03:54:17 72.64, 113.38 62.15 08/25/2020 03:54:28 72.67, 113.40 62.17 2.39 11
22 08/25/2020 04:45:01 -72.65, -79.31 117.83 08/25/2020 04:45:10 -72.64, -79.32 117.84 0.87 9
23 08/25/2020 05:35:47 72.65, 87.99 62.19 08/25/2020 05:35:50 72.64, 88.01 62.17 1.33 3
24 08/25/2020 06:26:31 -72.66,-104.70 117.80 08/25/2020 06:26:31 -72.67,-104.60 117.79 3.65 0
25 08/25/2020 07:17:16 72.61, 62.71 62.16 08/25/2020 07:17:12 72.62, 62.63 62.18 2.85 4
26 08/25/2020 08:08:00 -72.61,-129.99 117.82 08/25/2020 08:07:53 -72.65,-129.99 117.79 3.75 7
27 08/25/2020 08:58:46 72.62, 37.32 62.20 08/25/2020 08:58:34 72.60, 37.24 62.18 3.33 12
28 08/25/2020 09:49:30 -72.62,-155.38 117.79 08/25/2020 09:49:15 -72.62,-155.37 117.79 0.42 15
29 08/25/2020 10:40:16 72.62, 11.93 62.23 08/25/2020 10:39:55 72.62, 11.96 62.23 1.04 21
30 08/25/2020 11:31:00 -72.63, 179.23 117.76 08/25/2020 11:30:37 -72.60, 179.24 117.78 2.94 23
31 08/25/2020 12:21:45 72.58, -13.36 62.20 08/25/2020 12:21:17 72.60, -13.43 62.23 3.30 28
32 08/25/2020 13:12:29 -72.58, 153.95 117.78 08/25/2020 13:11:59 -72.58, 153.85 117.78 3.17 30
33 08/25/2020 14:03:15 72.59, -38.75 62.24 08/25/2020 14:02:39 72.58, -38.82 62.24 2.45 36
34 08/25/2020 14:53:59 -72.59, 128.56 117.75 08/25/2020 14:53:20 -72.61, 128.57 117.73 1.72 39
35 08/25/2020 15:44:45 72.59, -64.14 62.27 08/25/2020 15:44:00 72.61, -64.10 62.29 1.82 45
36 08/25/2020 16:35:29 -72.60, 103.17 117.72 08/25/2020 16:34:42 -72.58, 103.19 117.72 1.77 47
37 08/25/2020 17:26:15 72.60, -89.53 62.30 08/25/2020 17:25:22 72.58, -89.48 62.29 2.57 53
38 08/25/2020 18:16:58 -72.56, 77.88 117.74 08/25/2020 18:16:04 -72.56, 77.80 117.72 2.85 54
39 08/25/2020 19:07:44 72.56,-114.81 62.28 08/25/2020 19:06:44 72.56,-114.87 62.29 1.93 60
40 08/25/2020 19:58:28 -72.56, 52.49 117.71 08/25/2020 19:57:25 -72.59, 52.52 117.67 3.01 63
41 08/25/2020 20:49:14 72.57,-140.20 62.31 08/25/2020 20:48:05 72.59,-140.15 62.34 2.90 69
42 08/25/2020 21:39:57 -72.57, 27.10 117.68 08/25/2020 21:38:46 -72.57, 27.13 117.67 0.96 71
43 08/25/2020 22:30:41 72.47,-165.39 62.23 08/25/2020 22:29:27 72.51,-165.64 62.30 9.79 74
44 08/25/2020 23:21:24 -72.43, 2.02 117.81 08/25/2020 23:20:10 -72.44, 1.54 117.75 16.23 74
45 08/26/2020 00:12:05 72.17, 169.83 61.93 08/26/2020 00:10:55 72.18, 168.37 62.03 49.75 70
46 08/26/2020 01:02:48 -72.13, -22.77 118.11 08/26/2020 01:01:38 -72.11, -24.44 118.02 57.09 70
47 08/26/2020 01:53:29 71.87, 145.02 61.63 08/26/2020 01:52:22 71.90, 142.50 61.81 87.52 67
48 08/26/2020 02:44:12 -71.83, -47.58 118.41 08/26/2020 02:43:05 -71.83, -50.31 118.25 94.61 67
